This is the latest recevied weather packets stored in our database for station/object N7CEE. If no packets are shown the sender has not sent any weather packets the latest 10 day(s).
| Time | Temp. | Humidity | Pressure | Rain* | Wind** | Luminosity | Snow |
|---|---|---|---|---|---|---|---|
| 1777908627 | 9.44° C | 61% | 1021.8 hPa | 0 mm | - | 150 W/m² | - |
| 1777908323 | 9.44° C | 61% | 1021.9 hPa | 0 mm | - | 119 W/m² | - |
| 1777908020 | 8.89° C | 60% | 1021.9 hPa | 0 mm | - | 96 W/m² | - |
| 1777907716 | 9.44° C | 60% | 1021.8 hPa | 0 mm | - | 105 W/m² | - |
| 1777907410 | 9.44° C | 58% | 1021.6 hPa | 0 mm | - | 112 W/m² | - |
| 1777907108 | 8.89° C | 57% | 1021.9 hPa | 0 mm | - | 109 W/m² | - |
| 1777906806 | 8.89° C | 56% | 1021.6 hPa | 0 mm | - | 102 W/m² | - |
| 1777906503 | 9.44° C | 55% | 1021.5 hPa | 0 mm | - | 105 W/m² | - |
| 1777906198 | 8.89° C | 55% | 1021.6 hPa | 0 mm | - | 92 W/m² | - |
| 1777905895 | 8.89° C | 54% | 1021.8 hPa | 0 mm | - | 89 W/m² | - |
| 1777905592 | 8.89° C | 54% | 1021.5 hPa | 0 mm | - | 81 W/m² | - |
| 1777905289 | 8.89° C | 53% | 1021.6 hPa | 0 mm | - | 77 W/m² | - |
| 1777904986 | 8.89° C | 53% | 1021.6 hPa | 0 mm | - | 78 W/m² | - |
| 1777904683 | 8.89° C | 53% | 1021.4 hPa | 0 mm | - | 72 W/m² | - |
| 1777904380 | 8.89° C | 53% | 1021.8 hPa | 0 mm | - | 69 W/m² | - |
| 1777904077 | 8.89° C | 55% | 1021.6 hPa | 0 mm | - | 65 W/m² | - |
| 1777903773 | 8.33° C | 55% | 1021.6 hPa | 0 mm | - | 58 W/m² | - |
| 1777903470 | 8.33° C | 55% | 1021.5 hPa | 0 mm | - | 53 W/m² | - |
| 1777903167 | 8.33° C | 54% | 1021.4 hPa | 0 mm | - | 52 W/m² | - |
| 1777902863 | 8.33° C | 54% | 1021.3 hPa | 0 mm | - | 45 W/m² | - |
| 1777902561 | 8.33° C | 54% | 1021.4 hPa | 0 mm | - | 40 W/m² | - |
| 1777902257 | 8.33° C | 54% | 1021.6 hPa | 0 mm | - | 39 W/m² | - |
| 1777901955 | 7.78° C | 53% | 1021.6 hPa | 0 mm | - | 28 W/m² | - |
| 1777901653 | 8.33° C | 54% | 1021.4 hPa | 0 mm | - | 28 W/m² | - |
| 1777901349 | 7.78° C | 54% | 1021.3 hPa | 0 mm | - | 28 W/m² | - |
* Rain latest hour (hover to see other rain measurements)
** Current wind speed in m/s (hover to see current wind gust speed)